Location: Poughquag
(41.6090°N, 73.6820°W)
Time: 00:36:43
(UTC-05:00)

Vanguard 3 - Visible Passes

Search period start: 29 November 2023 00:00
Search period end: 09 December 2023 00:00
Orbit: 507 x 3241 km, 33.3° (Epoch: 28 November)

Date Brightness Start Highest point End Pass type
(mag) Time Alt. Az. Time Alt. Az. Time Alt. Az.
30 Nov 10.8 20:15:55 10° S 20:16:12 10° S 20:16:12 10° S visible
01 Dec 10.9 21:07:13 10° SSW 21:08:10 12° SSW 21:08:10 12° SSW visible
02 Dec 10.5 19:50:19 10° S 19:55:47 16° SSE 19:55:47 16° SSE visible
03 Dec 10.6 18:36:24 10° SSE 18:40:12 11° SSE 18:43:25 10° SE visible
03 Dec 10.5 20:42:48 10° SSW 20:47:45 20° SSW 20:47:45 20° SSW visible
04 Dec 10.3 19:25:14 10° SSW 19:35:22 22° SSE 19:35:22 22° SSE visible
04 Dec 10.8 21:37:13 10° SW 21:39:42 16° SW 21:39:42 16° SW visible
05 Dec 10.6 18:09:36 10° S 18:17:25 15° SSE 18:22:59 11° ESE visible
05 Dec 10.2 20:18:23 10° SW 20:27:18 29° S 20:27:18 29° S visible
06 Dec 10.1 19:00:22 10° SSW 19:12:49 26° SSE 19:14:54 25° SE visible
06 Dec 10.4 21:13:10 10° SW 21:19:14 25° SW 21:19:14 25° SW visible
07 Dec 10.5 17:43:58 10° S 17:54:28 19° SE 18:02:29 11° ESE visible
07 Dec 9.8 19:54:00 10° SW 20:06:48 37° S 20:06:48 37° S visible
07 Dec 10.9 22:08:51 10° WSW 22:11:08 16° WSW 22:11:08 16° WSW visible
08 Dec 10.0 18:35:40 10° SSW 18:49:53 30° SSE 18:54:21 26° SE visible
08 Dec 10.0 20:49:04 10° SW 20:58:41 36° SSW 20:58:41 36° SSW visible
